{"data":{"norad_id":58611,"intl_designator":"2023-200Y","name":"STARLINK-31061","alt_names":[],"object_type":"PAYLOAD","status":"ACTIVE","operator":null,"country":"US","launch_date":"2023-12-19","launch_site_code":"AFETR","launch_vehicle":null,"mission":null,"orbit_class":"UNKNOWN","rcs_meters":null,"size_class":null,"mass_kg":null,"dimensions":null,"purposes":["comms"],"wikipedia_slug":null,"has_3d_model":false,"image_url":null,"decayed_at":null,"tle_current":{"epoch":"2026-05-25T03:44:45.134880Z","epoch_age_seconds":71946,"freshness":"FRESH","line1":"1 58611U 23200Y   26145.15607795  .00003073  00000+0  12117-3 0  9993","line2":"2 58611  43.0022  97.1493 0001168 253.6981 106.3742 15.27573431135300","mean_motion":15.27573431,"eccentricity":0.0001168,"inclination_deg":43.0022,"raan_deg":97.1493,"arg_perigee_deg":253.6981,"mean_anomaly_deg":106.3742,"bstar":0.00012117,"rev_number":13530,"period_min":94.267154087469,"perigee_km":482.26737722585,"apogee_km":483.8701548928,"semimajor_km":6861.2057660593,"source":"CELESTRAK","updated_at":"2026-05-25T13:38:18.704931Z"}}}